Location: Colle San Luigi
(43.5500°N, 13.4167°E)
Time: 13:02:10
(UTC+00:00)

Cosmos 1908 - Pass Details

Date: 09 April 2020
Orbit: 511 x 531 km, 82.5° (Epoch: 26 May)

Event Time Altitude Azimuth Distance (km) Brightness Sun altitude
Rises 19:02:54 0° 201° (SSW) 2,635 6.7 -14.5°
Reaches altitude 10° 19:05:05 10° 208° (SSW) 1,756 5.9 -14.8°
Maximum altitude 19:08:47 45° 282° (WNW) 724 4.4 -15.4°
Drops below altitude 10° 19:12:34 10° 356° (N) 1,782 6.3 -16.0°
Sets 19:14:48 0° 3° (N) 2,679 7.2 -16.4°
